{"data":{"norad_id":53825,"intl_designator":"2022-114H","name":"STARLINK-4751","alt_names":[],"object_type":"PAYLOAD","status":"ACTIVE","operator":null,"country":"US","launch_date":"2022-09-19","launch_site_code":"AFETR","launch_vehicle":null,"mission":null,"orbit_class":"UNKNOWN","rcs_meters":null,"size_class":null,"mass_kg":null,"dimensions":null,"purposes":["comms"],"wikipedia_slug":null,"has_3d_model":false,"image_url":null,"decayed_at":null,"tle_current":{"epoch":"2026-09-20T06:03:07.939008Z","epoch_age_seconds":105738,"freshness":"FRESH","line1":"1 53825U 22114H   26263.25217522  .00001054  00000+0  41139-4 0  9999","line2":"2 53825  53.1599 140.9200 0001291  90.6294 269.4857 15.35393775222337","mean_motion":15.35393775,"eccentricity":0.0001291,"inclination_deg":53.1599,"raan_deg":140.92,"arg_perigee_deg":90.6294,"mean_anomaly_deg":269.4857,"bstar":4.1139e-5,"rev_number":22233,"period_min":93.787015646849,"perigee_km":458.86835337904,"apogee_km":460.63389609285,"semimajor_km":6837.8881247359,"source":"CELESTRAK","updated_at":"2026-09-21T09:00:32.998403Z"}}}